This is the latest recevied weather packets stored in our database for station/object W0AKO. If no packets are shown the sender has not sent any weather packets the latest 10 day(s).
| Time | Temp. | Humidity | Pressure | Rain* | Wind** | Luminosity | Snow |
|---|---|---|---|---|---|---|---|
| 1777302818 | 13.89° C | 10% | 1014.3 hPa | 0 mm | - | 263 W/m² | - |
| 1777302515 | 12.78° C | 10% | 1014.3 hPa | 0 mm | - | 262 W/m² | - |
| 1777302213 | 12.78° C | 10% | 1014.6 hPa | 0 mm | - | 233 W/m² | - |
| 1777301910 | 12.78° C | 10% | 1014.4 hPa | 0 mm | - | 208 W/m² | - |
| 1777301607 | 12.22° C | 10% | 1014.4 hPa | 0 mm | - | 194 W/m² | - |
| 1777301304 | 12.22° C | 10% | 1014.4 hPa | 0 mm | - | 176 W/m² | - |
| 1777301001 | 12.22° C | 10% | 1014.3 hPa | 0 mm | - | 161 W/m² | - |
| 1777300699 | 12.78° C | 10% | 1014.2 hPa | 0 mm | - | 152 W/m² | - |
| 1777300396 | 12.22° C | 10% | 1014.4 hPa | 0 mm | - | 142 W/m² | - |
| 1777300094 | 11.67° C | 10% | 1014.3 hPa | 0 mm | - | 132 W/m² | - |
| 1777299790 | 11.67° C | 10% | 1014.2 hPa | 0 mm | - | 120 W/m² | - |
| 1777299487 | 11.67° C | 10% | 1014.2 hPa | 0 mm | - | 112 W/m² | - |
| 1777299185 | 11.67° C | 10% | 1014.2 hPa | 0 mm | - | 104 W/m² | - |
| 1777298882 | 12.78° C | 10% | 1014.1 hPa | 0 mm | - | 101 W/m² | - |
| 1777298579 | 11.67° C | 10% | 1014.4 hPa | 0 mm | - | 95 W/m² | - |
| 1777298275 | 11.67° C | 10% | 1014.2 hPa | 0 mm | - | 92 W/m² | - |
| 1777297970 | 11.11° C | 10% | 1014.1 hPa | 0 mm | - | 80 W/m² | - |
| 1777297667 | 10.56° C | 10% | 1013.8 hPa | 0 mm | - | 70 W/m² | - |
| 1777297365 | 10.56° C | 10% | 1013.9 hPa | 0 mm | - | 52 W/m² | - |
| 1777297061 | 10° C | 10% | 1013.8 hPa | 0 mm | - | 46 W/m² | - |
| 1777296758 | 9.44° C | 10% | 1013.8 hPa | 0 mm | - | 38 W/m² | - |
| 1777296454 | 9.44° C | 10% | 1013.9 hPa | 0 mm | - | 24 W/m² | - |
| 1777296150 | 8.89° C | 10% | 1013.6 hPa | 0 mm | - | 21 W/m² | - |
| 1777295847 | 8.89° C | 10% | 1013.5 hPa | 0 mm | - | 19 W/m² | - |
| 1777295544 | 8.89° C | 10% | 1013.6 hPa | 0 mm | - | 16 W/m² | - |
* Rain latest hour (hover to see other rain measurements)
** Current wind speed in m/s (hover to see current wind gust speed)